Weather History for Clarksville, TN

Change the Weather History Date:

Thursday, February 7, 2013

  Actual Average Record
Temperature  
Mean Temperature 53 °F -  
Max Temperature 67 °F - 67 °F (1949)
Min Temperature 38 °F - 4 °F (1985)
Degree Days  
Heating Degree Days 12    
Month to date heating degree days 182  
Since 1 July heating degree days 2409  
Cooling Degree Days 0    
Month to date cooling degree days 0  
Growing Degree Days 2 (Base 50)    
Moisture  
Dew Point 40 °F    
Average Humidity 61    
Maximum Humidity 79    
Minimum Humidity 42    
Precipitation  
Precipitation 0.00 in - 0.72 in (1951)
Month to date precipitation 0.01  
Sea Level Pressure  
Sea Level Pressure 29.98 in    
Wind  
Wind Speed 7 mph (SSE)    
Max Wind Speed 16 mph    
Max Gust Speed 20 mph    
Visibility 10 miles    
Events      
T = Trace of Precipitation, MM = Missing Value Source: NWS Daily Summary

Daily Weather History Graph

Daily Weather History Graph

Search for Another Location

Airport:

Trip Planner

Search our weather history database for the weather conditions in past years. The results will help you decide how hot, cold, wet, or windy it might be!

Date:

Astronomy

Feb. 07, 2013 Rise Set
Actual Time 6:45 AM CST 5:22 PM CST
Civil Twilight 6:19 AM CST 5:49 PM CST
Nautical Twilight 5:48 AM CST 6:19 PM CST
Astronomical Twilight 5:18 AM CST 6:49 PM CST
Moon 4:22 AM CST (2/7) 2:48 PM CST (2/7)
Length of Visible Light 11h 30m
Length of Day
10h 36m
Waning Crescent, 9% of the Moon is Illuminated
Feb 7
Waning Crescent
Feb 10
New
Feb 17
First Quarter
Feb 25
Full
Mar 4
Last Quarter

Hourly Weather History & Observations

Time (CST) Temp. Windchill Dew Point Humidity Pressure Visibility Wind Dir Wind Speed Gust Speed Precip Events Conditions
12:52 AM 42.1 °F - 30.9 °F 65% 30.12 in 10.0 mi Calm Calm - N/A   Clear
1:52 AM 42.1 °F 40.2 °F 32.0 °F 67% 30.11 in 10.0 mi ESE 3.5 mph - N/A   Clear
2:52 AM 39.9 °F 35.8 °F 33.1 °F 77% 30.09 in 10.0 mi ESE 5.8 mph - N/A   Clear
3:52 AM 41.0 °F - 33.1 °F 73% 30.07 in 10.0 mi Calm Calm - N/A   Clear
4:52 AM 42.1 °F 39.2 °F 33.1 °F 70% 30.06 in 10.0 mi East 4.6 mph - N/A   Clear
5:52 AM 39.9 °F 36.7 °F 34.0 °F 79% 30.05 in 10.0 mi SE 4.6 mph - N/A   Clear
6:52 AM 41.0 °F 38.0 °F 32.0 °F 70% 30.05 in 10.0 mi East 4.6 mph - N/A   Clear
7:52 AM 43.0 °F 38.8 °F 34.0 °F 71% 30.04 in 10.0 mi SE 6.9 mph - N/A   Overcast
8:52 AM 48.0 °F - 35.1 °F 61% 30.04 in 10.0 mi SE 3.5 mph - N/A   Clear
9:52 AM 53.1 °F - 35.1 °F 50% 30.03 in 10.0 mi SE 4.6 mph - N/A   Clear
10:52 AM 59.0 °F - 37.9 °F 46% 30.02 in 10.0 mi South 9.2 mph - N/A   Clear
11:52 AM 64.0 °F - 42.1 °F 45% 29.98 in 10.0 mi South 10.4 mph 17.3 mph N/A   Partly Cloudy
12:52 PM 64.9 °F - 43.0 °F 45% 29.94 in 10.0 mi SSW 10.4 mph - N/A   Mostly Cloudy
1:52 PM 66.9 °F - 43.0 °F 42% 29.92 in 10.0 mi SW 15.0 mph - N/A   Mostly Cloudy
2:52 PM 64.9 °F - 44.1 °F 47% 29.91 in 10.0 mi SSW 8.1 mph - N/A   Scattered Clouds
3:52 PM 64.9 °F - 44.1 °F 47% 29.89 in 10.0 mi South 10.4 mph - N/A   Scattered Clouds
4:52 PM 62.1 °F - 44.1 °F 52% 29.89 in 10.0 mi South 5.8 mph - N/A   Clear
5:52 PM 60.1 °F - 44.1 °F 55% 29.89 in 10.0 mi South 4.6 mph - N/A   Partly Cloudy
6:52 PM 59.0 °F - 45.0 °F 60% 29.89 in 10.0 mi South 5.8 mph - N/A   Partly Cloudy
7:52 PM 57.9 °F - 46.0 °F 65% 29.90 in 10.0 mi South 8.1 mph - N/A   Overcast
8:52 PM 57.0 °F - 46.0 °F 67% 29.90 in 10.0 mi South 8.1 mph - N/A   Overcast
9:52 PM 55.9 °F - 46.0 °F 69% 29.89 in 10.0 mi South 11.5 mph - N/A   Overcast
10:52 PM 55.9 °F - 46.0 °F 69% 29.88 in 10.0 mi South 10.4 mph - N/A   Overcast
11:52 PM 55.0 °F - 46.9 °F 74% 29.87 in 10.0 mi SSW 6.9 mph - N/A   Overcast